ZL1TQN Weather Reports


Display with metric or nautical units.
time (UTC)temp
F
wind
direction
speed
MPH
gust
MPH
rain 1hr
in
rain 24hr
in
rain mn
in
humidity
%
barometer
mb
20260901175505 51 281 2.0 6.0 0.00 0.00 0.00 78 1017.3
20260901174505 50 267 1.0 6.0 0.00 0.00 0.00 78 1017.2
20260901174006 50 224 2.0 6.0 0.00 0.00 0.00 78 1017.1
20260901173504 50 257 1.0 7.0 0.00 0.00 0.00 78 1017.1
20260901173005 50 244 3.0 7.0 0.00 0.00 0.00 78 1017.0
20260901172505 50 247 3.0 6.0 0.00 0.00 0.00 78 1017.0
20260901172004 50 241 1.0 6.0 0.00 0.00 0.00 78 1016.9
20260901171504 50 266 2.0 6.0 0.00 0.00 0.00 78 1016.8
20260901171005 50 286 2.0 6.0 0.00 0.00 0.00 79 1016.8
20260901165504 50 298 0.0 3.0 0.00 0.00 0.00 78 1016.7
20260901164504 50 199 0.0 3.0 0.00 0.00 0.00 78 1016.7
20260901164005 50 295 2.0 6.0 0.00 0.00 0.00 78 1016.6
20260901163005 50 243 2.0 7.0 0.00 0.00 0.00 79 1016.4
20260901162504 50 249 2.0 6.0 0.00 0.00 0.00 79 1016.6
20260901162005 49 237 3.0 9.0 0.00 0.00 0.00 79 1016.6
20260901161504 49 184 2.0 9.0 0.00 0.00 0.00 80 1016.6
20260901160004 48 225 2.0 5.0 0.00 0.00 0.00 82 1016.6
20260901155505 47 230 2.0 3.0 0.00 0.00 0.00 83 1016.6
20260901155004 47 239 2.0 3.0 0.00 0.00 0.00 83 1016.7
20260901154504 47 198 2.0 5.0 0.00 0.00 0.00 82 1016.7
20260901154004 47 320 2.0 5.0 0.00 0.00 0.00 83 1016.7
20260901153504 47 267 1.0 3.0 0.00 0.00 0.00 82 1016.7
20260901153004 47 290 1.0 3.0 0.00 0.00 0.00 81 1016.7
20260901152505 48 276 1.0 3.0 0.00 0.00 0.00 80 1016.7
20260901151505 49 274 0.0 2.0 0.00 0.00 0.00 79 1016.9
20260901150005 49 262 1.0 3.0 0.00 0.00 0.00 78 1017.1
20260901145005 50 256 1.0 6.0 0.00 0.00 0.00 78 1017.2
20260901144505 49 243 3.0 9.0 0.00 0.00 0.00 79 1017.2
20260901144004 49 180 2.0 9.0 0.00 0.00 0.00 79 1017.2
20260901143504 49 252 2.0 9.0 0.00 0.00 0.00 80 1017.2
20260901143005 48 191 1.0 5.0 0.00 0.00 0.00 80 1017.2
20260901142505 48 212 2.0 5.0 0.00 0.00 0.00 80 1017.2
20260901142006 48 196 1.0 3.0 0.00 0.00 0.00 81 1017.2
20260901141505 48 162 2.0 3.0 0.00 0.00 0.00 82 1017.3
20260901135505 46 158 0.0 2.0 0.00 0.00 0.00 85 1017.7
20260901135004 46 158 0.0 2.0 0.00 0.00 0.00 84 1017.8
20260901134505 46 158 0.0 3.0 0.00 0.00 0.00 84 1017.8
20260901134005 46 174 0.0 3.0 0.00 0.00 0.00 85 1017.8
20260901133504 46 193 0.0 3.0 0.00 0.00 0.00 84 1017.9
20260901133005 46 191 2.0 3.0 0.00 0.00 0.00 85 1017.9
20260901132504 46 326 0.0 0.0 0.00 0.00 0.00 85 1017.8
20260901132004 46 23 0.0 0.0 0.00 0.00 0.00 85 1017.7
20260901131504 46 23 0.0 0.0 0.00 0.00 0.00 85 1017.7
20260901131005 46 23 0.0 0.0 0.00 0.00 0.00 85 1017.9
20260901130004 46 23 0.0 0.0 0.00 0.00 0.00 85 1017.9
20260901125504 46 23 0.0 0.0 0.00 0.00 0.00 84 1017.9
20260901125004 46 23 0.0 0.0 0.00 0.00 0.00 84 1017.9
20260901124505 46 23 0.0 0.0 0.00 0.00 0.00 84 1017.9
20260901124004 46 23 0.0 1.0 0.00 0.00 0.00 83 1017.9
20260901123504 46 23 0.0 1.0 0.00 0.00 0.00 84 1017.9
20260901123004 46 13 0.0 1.0 0.00 0.00 0.00 84 1017.8
20260901122004 46 325 0.0 0.0 0.00 0.00 0.00 83 1017.7
20260901121504 47 325 0.0 3.0 0.00 0.00 0.00 82 1017.7
20260901121004 47 12 0.0 3.0 0.00 0.00 0.00 82 1017.7
20260901115005 48 325 0.0 0.0 0.00 0.00 0.00 80 1017.5
20260901114504 48 325 0.0 0.0 0.00 0.00 0.00 80 1017.5
20260901114004 48 325 0.0 0.0 0.00 0.00 0.00 80 1017.5
20260901113504 48 325 0.0 0.0 0.00 0.00 0.00 80 1017.5
20260901113005 48 325 0.0 0.0 0.00 0.00 0.00 80 1017.5
20260901112504 48 325 0.0 0.0 0.00 0.00 0.00 80 1017.5
20260901112004 48 325 0.0 0.0 0.00 0.00 0.00 80 1017.6
20260901111504 48 325 0.0 2.0 0.00 0.00 0.00 79 1017.6
20260901111005 48 325 0.0 3.0 0.00 0.00 0.00 79 1017.6
20260901110005 48 312 1.0 3.0 0.00 0.00 0.00 79 1017.4
20260901105504 48 316 1.0 3.0 0.00 0.00 0.00 78 1017.4
20260901105004 49 269 1.0 2.0 0.00 0.00 0.00 78 1017.3
20260901104504 49 21 0.0 3.0 0.00 0.00 0.00 77 1017.2
20260901104004 49 358 0.0 3.0 0.00 0.00 0.00 77 1017.3
20260901103504 49 286 1.0 3.0 0.00 0.00 0.00 77 1017.2
20260901103004 49 299 1.0 6.0 0.00 0.00 0.00 77 1017.2
20260901102504 49 278 1.0 6.0 0.00 0.00 0.00 77 1017.2
20260901102004 49 279 3.0 6.0 0.00 0.00 0.00 76 1017.2
20260901101004 49 272 3.0 6.0 0.00 0.00 0.00 76 1017.2
20260901100004 50 278 3.0 6.0 0.00 0.00 0.00 75 1017.2
20260901095004 50 293 1.0 10.0 0.00 0.00 0.00 74 1017.2
20260901094004 50 260 3.0 10.0 0.00 0.00 0.00 74 1017.1
20260901093504 51 262 5.0 12.0 0.00 0.00 0.00 74 1017.1
20260901093004 51 258 6.0 12.0 0.00 0.00 0.00 73 1017.1
20260901091504 51 253 6.0 12.0 0.00 0.00 0.00 73 1016.9
20260901091004 51 254 6.0 10.0 0.00 0.00 0.00 73 1016.8
20260901090003 51 264 7.0 12.0 0.00 0.00 0.00 72 1016.7
20260901085504 51 248 6.0 13.0 0.00 0.00 0.00 72 1016.7
20260901085004 51 260 6.0 13.0 0.00 0.00 0.00 71 1016.7
20260901084504 51 257 6.0 13.0 0.00 0.00 0.00 71 1016.8
20260901084005 51 265 8.0 13.0 0.00 0.00 0.00 71 1016.7
20260901083005 52 266 7.0 14.0 0.00 0.00 0.00 70 1016.7
20260901082006 52 266 7.0 14.0 0.00 0.00 0.00 69 1016.5
20260901081505 52 250 7.0 13.0 0.00 0.00 0.00 69 1016.4
20260901080006 52 242 6.0 13.0 0.00 0.00 0.00 69 1016.2
20260901075005 52 247 6.0 13.0 0.00 0.00 0.00 69 1016.2
20260901074505 52 248 4.0 13.0 0.00 0.00 0.00 69 1016.2
20260901074005 52 256 7.0 14.0 0.00 0.00 0.00 68 1016.2
20260901072006 53 202 4.0 15.0 0.00 0.00 0.00 69 1016.0
20260901071505 53 244 7.0 15.0 0.00 0.00 0.00 68 1015.9
20260901071005 53 244 10.0 18.0 0.00 0.00 0.00 68 1015.8
20260901070005 53 252 6.0 13.0 0.00 0.00 0.00 69 1015.7
20260901065505 53 247 6.0 14.0 0.00 0.00 0.00 68 1015.7
20260901065005 53 242 7.0 14.0 0.00 0.00 0.00 68 1015.6
20260901064506 53 261 6.0 12.0 0.00 0.00 0.00 67 1015.6
20260901064005 54 255 6.0 14.0 0.00 0.00 0.00 67 1015.5
20260901063505 54 263 10.0 14.0 0.00 0.00 0.00 66 1015.4
20260901062506 54 257 7.0 14.0 0.00 0.00 0.00 66 1015.2
20260901062005 54 261 7.0 17.0 0.00 0.00 0.00 66 1015.1
20260901061506 55 273 7.0 17.0 0.00 0.00 0.00 65 1015.1
20260901061005 55 266 9.0 17.0 0.00 0.00 0.00 65 1015.1
20260901060005 55 258 9.0 20.0 0.00 0.00 0.00 63 1015.0
20260901055505 55 262 8.0 20.0 0.00 0.00 0.00 63 1015.0
20260901054505 56 266 6.0 17.0 0.00 0.00 0.00 63 1014.6
20260901054005 56 269 10.0 20.0 0.00 0.00 0.00 62 1014.6
20260901053505 56 271 13.0 20.0 0.00 0.00 0.00 61 1014.4
20260901053005 56 261 7.0 18.0 0.00 0.00 0.00 62 1014.4
20260901051006 57 260 9.0 20.0 0.00 0.00 0.00 60 1014.0
20260901050005 58 263 10.0 20.0 0.00 0.00 0.00 59 1013.6
20260901045505 58 266 7.0 20.0 0.00 0.00 0.00 59 1013.6
20260901045005 58 256 6.0 20.0 0.00 0.00 0.00 58 1013.7
20260901044506 59 269 13.0 20.0 0.00 0.00 0.00 56 1013.7
20260901044005 59 226 9.0 16.0 0.00 0.00 0.00 56 1013.6
20260901043505 59 243 10.0 15.0 0.00 0.00 0.00 55 1013.5
20260901042505 59 242 7.0 16.0 0.00 0.00 0.00 55 1013.5
20260901042005 59 277 7.0 16.0 0.00 0.00 0.00 55 1013.5
20260901041505 59 251 10.0 18.0 0.00 0.00 0.00 53 1013.4
20260901041005 60 261 9.0 22.0 0.00 0.00 0.00 54 1013.3